• In Latvia
  • List of Countries
  • For 7 days
  • Water Temperature
  • Satellite Maps
  • Weather Map
  • Weather Widgets
  • user-avatar
    Login

    Hourly Weather Quito

    Today, 26 February, Sunday

    Time Temperature Precipitation Wind Pressure Humidity
    00:00 +16°C° 0.2 mm 1 mps 622 mmHg 96%
    01:00 +16°C° 0 mm 1 mps 622 mmHg 96%
    02:00 +15°C° 0.1 mm 1 mps 621 mmHg 96%
    03:00 +15°C° 0.1 mm 1 mps 621 mmHg 96%
    04:00 +15°C° 0.1 mm 1 mps 621 mmHg 96%
    05:00 +16°C° 0 mm 1 mps 621 mmHg 95%
    06:00 +16°C° 0 mm 1 mps 622 mmHg 94%
    07:00 +18°C° 0 mm 1 mps 622 mmHg 92%
    08:00 +20°C° 0 mm 1 mps 623 mmHg 81%
    09:00 +22°C° 0 mm 1 mps 623 mmHg 69%
    10:00 +25°C° 0 mm 2 mps 624 mmHg 58%
    11:00 +26°C° 0.2 mm 2 mps 623 mmHg 55%
    12:00 +26°C° 0.2 mm 2 mps 623 mmHg 53%
    13:00 +27°C° 0.2 mm 3 mps 622 mmHg 50%
    14:00 +26°C° 1.1 mm 2 mps 621 mmHg 58%
    15:00 +25°C° 1.1 mm 2 mps 621 mmHg 66%
    16:00 +24°C° 1.1 mm 1 mps 620 mmHg 74%
    17:00 +23°C° 1.2 mm 1 mps 620 mmHg 80%
    18:00 +21°C° 1.2 mm 1 mps 620 mmHg 86%
    19:00 +17°C° 1.2 mm 0 mps 620 mmHg 92%
    20:00 +17°C° 0.9 mm 0 mps 620 mmHg 93%
    21:00 +16°C° 0.9 mm 0 mps 620 mmHg 94%
    22:00 +16°C° 0.9 mm 0 mps 620 mmHg 95%
    23:00 +18°C° 1.3 mm 1 mps 620 mmHg 96%

    Tomorrow, 27 February, Monday

    Time Temperature Precipitation Wind Pressure Humidity
    00:00 +18°C° 1.3 mm 1 mps 620 mmHg 96%
    01:00 +18°C° 1.3 mm 1 mps 620 mmHg 96%
    02:00 +16°C° 0.7 mm 1 mps 620 mmHg 97%
    03:00 +16°C° 0.7 mm 1 mps 619 mmHg 97%
    04:00 +16°C° 0.7 mm 1 mps 619 mmHg 97%
    05:00 +16°C° 0.1 mm 1 mps 619 mmHg 97%
    06:00 +18°C° 0.1 mm 1 mps 620 mmHg 96%
    07:00 +18°C° 0.1 mm 1 mps 620 mmHg 96%
    08:00 +20°C° 0.1 mm 1 mps 621 mmHg 88%
    09:00 +22°C° 0.1 mm 1 mps 622 mmHg 81%
    10:00 +23°C° 0.1 mm 1 mps 623 mmHg 73%
    11:00 +24°C° 0.9 mm 1 mps 622 mmHg 75%
    12:00 +24°C° 0.9 mm 1 mps 621 mmHg 77%
    13:00 +24°C° 0.9 mm 1 mps 621 mmHg 79%
    14:00 +23°C° 1 mm 1 mps 620 mmHg 81%
    15:00 +23°C° 1 mm 2 mps 620 mmHg 83%
    16:00 +23°C° 1 mm 2 mps 619 mmHg 85%
    17:00 +21°C° 0.3 mm 2 mps 620 mmHg 89%
    18:00 +21°C° 0.3 mm 1 mps 620 mmHg 92%
    19:00 +19°C° 0.3 mm 1 mps 620 mmHg 96%
    20:00 +19°C° 0.1 mm 1 mps 620 mmHg 96%
    21:00 +18°C° 0.1 mm 1 mps 620 mmHg 96%
    22:00 +18°C° 0.1 mm 1 mps 620 mmHg 97%
    23:00 +16°C° 0.1 mm 1 mps 620 mmHg 96%

    Day after tomorrow, 28 February, Tuesday

    Time Temperature Precipitation Wind Pressure Humidity
    00:00 +16°C° 0.1 mm 1 mps 620 mmHg 96%
    01:00 +15°C° 0.1 mm 1 mps 619 mmHg 96%
    02:00 +15°C° 0 mm 1 mps 619 mmHg 96%
    03:00 +15°C° 0 mm 1 mps 619 mmHg 96%
    04:00 +15°C° 0 mm 1 mps 619 mmHg 96%
    05:00 +15°C° 0 mm 1 mps 620 mmHg 95%
    06:00 +16°C° 0 mm 1 mps 620 mmHg 94%
    07:00 +16°C° 0 mm 1 mps 621 mmHg 93%
    08:00 +19°C° 0.1 mm 1 mps 622 mmHg 85%
    09:00 +20°C° 0.1 mm 2 mps 622 mmHg 77%
    10:00 +23°C° 0.1 mm 2 mps 623 mmHg 69%
    11:00 +23°C° 0.4 mm 2 mps 623 mmHg 70%
    12:00 +22°C° 0.4 mm 3 mps 622 mmHg 71%
    13:00 +21°C° 0.4 mm 3 mps 621 mmHg 72%
    14:00 +21°C° 0.1 mm 3 mps 621 mmHg 71%
    15:00 +21°C° 0.1 mm 3 mps 620 mmHg 70%
    16:00 +20°C° 0.1 mm 3 mps 620 mmHg 68%
    17:00 +19°C° 0 mm 3 mps 620 mmHg 73%
    18:00 +18°C° 0 mm 3 mps 620 mmHg 78%
    19:00 +17°C° 0 mm 2 mps 620 mmHg 82%
    20:00 +16°C° 0.1 mm 2 mps 620 mmHg 84%
    21:00 +16°C° 0.1 mm 2 mps 621 mmHg 86%
    22:00 +16°C° 0.1 mm 2 mps 621 mmHg 87%
    23:00 +16°C° 0.1 mm 2 mps 621 mmHg 88%

    1 March, Wednesday

    Time Temperature Precipitation Wind Pressure Humidity
    00:00 +16°C° 0.1 mm 1 mps 621 mmHg 88%
    01:00 +16°C° 0.1 mm 1 mps 620 mmHg 88%
    02:00 +16°C° 0.2 mm 1 mps 620 mmHg 89%
    03:00 +16°C° 0.2 mm 1 mps 620 mmHg 90%
    04:00 +15°C° 0.2 mm 1 mps 620 mmHg 91%
    05:00 +16°C° 0.1 mm 1 mps 620 mmHg 90%
    06:00 +16°C° 0.1 mm 1 mps 621 mmHg 89%
    07:00 +16°C° 0.1 mm 0 mps 621 mmHg 88%
    08:00 +20°C° 0 mm 1 mps 622 mmHg 78%
    09:00 +22°C° 0 mm 1 mps 623 mmHg 68%
    10:00 +25°C° 0 mm 1 mps 624 mmHg 57%
    11:00 +25°C° 0.3 mm 1 mps 623 mmHg 58%
    12:00 +25°C° 0.3 mm 1 mps 622 mmHg 60%
    13:00 +25°C° 0.3 mm 1 mps 622 mmHg 61%
    14:00 +25°C° 0.4 mm 1 mps 621 mmHg 65%
    15:00 +24°C° 0.4 mm 2 mps 621 mmHg 69%
    16:00 +24°C° 0.4 mm 2 mps 620 mmHg 73%
    17:00 +22°C° 0.5 mm 1 mps 620 mmHg 78%
    18:00 +21°C° 0.5 mm 1 mps 621 mmHg 83%
    19:00 +19°C° 0.5 mm 1 mps 621 mmHg 89%
    20:00 +19°C° 0.2 mm 1 mps 621 mmHg 89%
    21:00 +18°C° 0.2 mm 1 mps 621 mmHg 89%
    22:00 +18°C° 0.2 mm 1 mps 621 mmHg 89%
    23:00 +18°C° 0.2 mm 1 mps 621 mmHg 89%

    2 March, Thursday

    Time Temperature Precipitation Wind Pressure Humidity
    00:00 +18°C° 0.2 mm 1 mps 621 mmHg 89%
    01:00 +16°C° 0.2 mm 1 mps 620 mmHg 89%
    02:00 +16°C° 0 mm 1 mps 620 mmHg 89%
    03:00 +16°C° 0 mm 1 mps 620 mmHg 90%
    04:00 +15°C° 0 mm 1 mps 620 mmHg 90%
    05:00 +16°C° 0 mm 1 mps 620 mmHg 90%
    06:00 +16°C° 0 mm 1 mps 621 mmHg 89%
    07:00 +16°C° 0 mm 1 mps 621 mmHg 89%
    08:00 +19°C° 0.1 mm 1 mps 622 mmHg 84%
    09:00 +20°C° 0.1 mm 1 mps 623 mmHg 79%
    10:00 +20°C° 0.1 mm 0 mps 624 mmHg 74%
    11:00 +23°C° 0.2 mm 1 mps 623 mmHg 69%
    12:00 +24°C° 0.2 mm 1 mps 623 mmHg 64%
    13:00 +25°C° 0.2 mm 1 mps 623 mmHg 59%
    14:00 +24°C° 0.3 mm 1 mps 623 mmHg 63%
    15:00 +24°C° 0.3 mm 1 mps 622 mmHg 66%
    16:00 +23°C° 0.3 mm 1 mps 621 mmHg 69%
    17:00 +21°C° 0.2 mm 1 mps 621 mmHg 75%
    18:00 +20°C° 0.2 mm 1 mps 621 mmHg 80%
    19:00 +16°C° 0.2 mm 0 mps 620 mmHg 86%
    20:00 +15°C° 0 mm 0 mps 620 mmHg 88%
    21:00 +14°C° 0 mm 0 mps 620 mmHg 89%
    22:00 +14°C° 0 mm 0 mps 620 mmHg 91%
    23:00 +13°C° 0 mm 0 mps 620 mmHg 91%

    3 March, Friday

    Time Temperature Precipitation Wind Pressure Humidity
    00:00 +13°C° 0 mm 0 mps 619 mmHg 91%
    01:00 +13°C° 0 mm 0 mps 619 mmHg 92%
    02:00 +14°C° 0 mm 1 mps 619 mmHg 89%
    03:00 +14°C° 0 mm 1 mps 619 mmHg 87%
    04:00 +14°C° 0 mm 1 mps 619 mmHg 84%
    05:00 +15°C° 0 mm 1 mps 620 mmHg 82%
    06:00 +15°C° 0 mm 1 mps 620 mmHg 81%
    07:00 +16°C° 0 mm 1 mps 621 mmHg 79%
    08:00 +20°C° 0 mm 1 mps 622 mmHg 66%
    09:00 +23°C° 0 mm 1 mps 623 mmHg 54%
    10:00 +26°C° 0 mm 1 mps 624 mmHg 42%
    11:00 +27°C° 0 mm 2 mps 623 mmHg 37%
    12:00 +28°C° 0 mm 2 mps 623 mmHg 31%
    13:00 +29°C° 0 mm 2 mps 623 mmHg 26%
    14:00 +29°C° 0 mm 2 mps 622 mmHg 27%
    15:00 +29°C° 0 mm 2 mps 622 mmHg 28%
    16:00 +28°C° 0 mm 3 mps 621 mmHg 29%
    17:00 +25°C° 0 mm 2 mps 620 mmHg 37%
    18:00 +21°C° 0 mm 2 mps 619 mmHg 45%
    19:00 +17°C° 0 mm 2 mps 619 mmHg 53%
    20:00 +16°C° 0 mm 2 mps 619 mmHg 55%
    21:00 +16°C° 0 mm 2 mps 619 mmHg 56%
    22:00 +15°C° 0 mm 2 mps 619 mmHg 57%
    23:00 +15°C° 0 mm 2 mps 619 mmHg 60%
    Show more